DISKSAT C

Last updated on Fri Dec 19 2025 00:02:10 GMT+0000 (Coordinated Universal Time)

1 67221U 25305C 25352.25800440 .00002734 00000+0 14323-3 0 9994 2 67221 45.0151 321.1654 0062593 307.7869 51.7353 15.16973586 19
UTC large
Height (km)
Speed (km/s)
/
Latitude / Longitude
Inclination (degrees)
Orbital Period (minutes)
Azimuth
Elevation
Range (km)
Doppler Factor

Next 0 passes for location: London (51.5072 / 0.1276)

Sorry there are no passes over London.